[[{"header":{"parameterUnit":"m.s-1","parameterCategory":1,"la1":30.2991,"la2":30.254,"lo1":-89.0895,"lo2":-89.0444,"dy":0.0017,"dx":0.0017,"nx":28,"ny":28,"refTime":"2024-12-10T03:00:00:Z","depth":0,"parameterNumber":2,"parameterNumberName":"U-component_of_WINDS"},"data":[0,0,0,0,0,0,0,0,0,0,0,0,0,0,0,0,0,0,0,0,0,0,0,0,0,0,0,0,0,0,0,0,0,0,0,0,0,0,0,0,0,0,0,0,0,0,0,0,0,0,0,0,0,0,0,0,0,0,2.3013,2.3013,0,2.3039,2.304,2.304,2.3027,2.3026,2.3025,2.3025,2.3052,2.3053,2.3054,0,0,0,0,0,0,0,0,0,0,0,0,0,2.2952,2.2953,2.3013,2.3013,2.3014,2.3039,2.304,2.304,2.3027,2.3026,2.3025,2.3024,2.3051,2.3053,2.3055,0,0,0,0,0,0,0,0,0,0,0,0,0,2.2979,2.2954,2.3013,2.301,2.301,2.3039,2.304,2.304,2.3027,2.3026,2.3025,2.3024,2.3051,2.3053,2.3055,2.3088,0,0,2.3061,2.3062,0,0,0,0,0,0,0,0,2.2977,2.2981,2.301,2.301,2.301,2.3029,2.3028,2.3056,2.3027,2.3021,2.3025,2.3023,2.3045,2.3047,2.3055,2.3089,2.3091,2.3061,2.3062,2.3063,2.3064,0,0,0,0,0,0,0,2.2975,2.298,2.3023,2.3011,2.3011,2.3008,2.3011,2.3033,2.3038,2.3021,2.302,2.3023,2.3045,2.3053,2.3055,2.3091,2.3061,2.3063,2.3064,2.3065,2.3157,2.3158,0,0,0,0,0,0,2.2974,2.2978,2.3022,2.3024,2.2991,2.301,2.3013,2.3024,2.3038,2.3039,2.3024,2.3023,2.305,2.3053,2.3056,2.3097,2.3063,2.3065,2.3066,2.3155,2.3157,2.3158,0,0,0,0,0,0,2.2972,2.2978,2.3021,2.3001,2.3006,2.3012,2.3025,2.3025,2.3033,2.304,2.3041,2.3031,2.3049,2.3053,2.3081,2.3098,2.3066,2.3068,2.3154,2.3156,2.3158,2.3179,0,0,0,0,0,0,2.2971,2.2977,2.2989,2.3001,2.3007,2.3045,2.3026,2.3026,2.3036,2.3035,2.3047,2.3048,2.3048,2.3078,2.3083,2.31,2.307,2.3153,2.3155,2.3157,2.3177,2.3181,2.3185,0,0,0,0,0,2.2968,2.2994,2.299,2.2996,2.3023,2.3046,2.305,2.3049,2.3038,2.3051,2.3056,2.3048,2.3095,2.3081,2.3086,2.3104,2.3151,2.3154,2.3157,2.3175,2.3181,2.3185,0,0,0,0,0,0,2.2984,2.2996,2.2991,2.3021,2.3033,2.3044,2.306,2.3055,2.307,2.3068,2.3066,2.307,2.3098,2.3104,2.3088,2.3139,2.3122,2.3126,2.3134,2.3139,2.3143,2.3141,2.3071,0,0,0,0,0,2.2991,2.3008,2.3018,2.3044,2.305,2.3054,2.3064,2.3063,2.3075,2.308,2.3087,2.3099,2.3116,2.3128,2.3145,2.3178,2.3181,2.3193,2.3198,2.3201,2.3204,2.3224,2.323,2.3167,2.3167,2.3167,0,0,2.3005,2.3014,2.3025,2.3047,2.3056,2.3075,2.3058,2.3078,2.3093,2.3083,2.3109,2.3115,2.3129,2.316,2.3174,2.3165,2.3223,2.3204,2.3207,2.3209,2.3227,2.3233,2.3238,2.3169,2.3169,2.3168,0,0,2.3041,2.3049,2.3072,2.3081,2.3095,2.3098,2.3104,2.3116,2.312,2.3147,2.314,2.3157,2.3187,2.3198,2.3207,2.3249,2.3243,2.3255,2.3276,2.3295,2.33,2.3305,2.332,2.3326,2.3258,2.3258,2.3258,0,2.3057,2.3085,2.3084,2.3106,2.3116,2.3109,2.3133,2.3142,2.316,2.3168,2.3159,2.3198,2.3206,2.324,2.3251,2.3258,2.3265,2.3253,2.33,2.3304,2.3308,2.3323,2.3329,2.3259,2.3259,2.3259,2.3259,0,2.3104,2.3124,2.3141,2.316,2.3172,2.3195,2.3198,2.3211,2.321,2.3214,2.3242,2.3252,2.3272,2.328,2.3278,2.3314,2.3309,2.3299,2.3282,2.3315,2.333,2.3335,2.3261,2.3261,2.326,2.326,0,0,2.3149,2.3169,2.3175,2.3184,2.32,2.3215,2.3238,2.3257,2.3269,2.3282,2.3302,2.3329,2.3321,2.3331,2.3331,2.3348,2.3382,2.3337,2.3337,2.3345,2.3423,2.343,2.3437,2.3378,2.3379,2.338,2.3422,0,2.3187,2.3226,2.3227,2.3264,2.3283,2.3277,2.3297,2.3309,2.3315,2.3332,2.3337,2.3357,2.3345,2.3351,2.3367,2.3374,2.3397,2.3371,2.3397,2.3398,2.3393,2.3444,2.3451,2.349,2.3428,2.3429,2.3429,0,2.3235,2.3251,2.329,2.3304,2.3312,2.333,2.3348,2.3365,2.3379,2.3382,2.3395,2.3392,2.3416,2.3399,2.3433,2.3415,2.3426,2.3431,2.3433,2.3435,2.3415,2.3448,2.3503,2.3509,2.3438,2.3437,2.3437,0,2.3265,2.3296,2.3323,2.3331,2.3348,2.3361,2.3369,2.3383,2.3395,2.3411,2.3419,2.3438,2.3449,2.3464,2.3467,2.3454,2.3502,2.3484,2.3505,2.3505,2.3515,2.3514,2.3572,2.3522,2.3522,2.3521,2.3521,0,2.3306,2.333,2.3337,2.3354,2.3381,2.3383,2.341,2.3417,2.3429,2.3448,2.3444,2.3462,2.3465,2.3484,2.3487,2.3515,2.352,2.3523,2.3524,2.3524,2.3523,2.353,2.3528,2.3523,2.3523,2.3522,2.3522,0,2.3344,2.3349,2.3379,2.3393,2.3398,2.3417,2.343,2.3447,2.3452,2.3476,2.3482,2.349,2.3512,2.3517,2.3543,2.3545,2.3579,2.3577,2.3574,2.3574,2.3595,2.3593,2.366,2.3669,2.3612,2.3613,2.3613,0,2.337,2.3389,2.3405,2.3418,2.3427,2.3446,2.3459,2.3462,2.3475,2.3494,2.3509,2.3531,2.3548,2.3584,2.3593,2.3613,2.3611,2.3634,2.3614,2.3614,2.3612,2.3611,2.3614,2.3637,2.3638,2.3638,2.3639,0,2.3416,2.3419,2.3437,2.3456,2.3472,2.3487,2.3502,2.3513,2.3518,2.3533,2.3556,2.357,2.3597,2.3619,2.364,2.3649,2.3645,2.3645,2.3651,2.3651,2.3649,2.3651,2.3584,2.3643,2.3643,2.3642,2.3642,2.3642,2.3449,2.3466,2.3481,2.3502,2.3514,2.3528,2.3545,2.3553,2.3572,2.3594,2.3595,2.362,2.3636,2.3663,2.3674,2.3694,2.3687,2.3695,2.3698,2.37,2.3702,2.3646,2.3698,2.3697,2.3697,2.3697,2.3697,0,2.3496,2.3506,2.3525,2.3546,2.3563,2.3558,2.3575,2.359,2.3612,2.3626,2.3644,2.3671,2.3693,2.3704,2.3726,2.374,2.3739,2.3746,2.3745,2.3747,2.3706,2.3699,2.3747,2.3747,2.3747,2.3747,2.3746,2.3746,2.3522,2.355,2.3555,2.3589,2.3599,2.3624,2.3634,2.3648,2.366,2.369,2.3708,2.3715,2.3729,2.3752,2.3773,2.3775,2.3784,2.3792,2.3794,2.3755,2.375,2.3745,2.3738,2.3793,2.3793,2.3833,2.3833,2.3833]},{"header":{"parameterUnit":"m.s-1","parameterCategory":1,"la1":30.2991,"la2":30.254,"lo1":-89.0895,"lo2":-89.0444,"dy":0.0017,"dx":0.0017,"nx":28,"ny":28,"refTime":"2024-12-10T03:00:00:Z","depth":0,"parameterNumber":3,"parameterNumberName":"V-component_of_WINDS"},"data":[0,0,0,0,0,0,0,0,0,0,0,0,0,0,0,0,0,0,0,0,0,0,0,0,0,0,0,0,0,0,0,0,0,0,0,0,0,0,0,0,0,0,0,0,0,0,0,0,0,0,0,0,0,0,0,0,0,0,-5.202,-5.2021,0,-5.2147,-5.2148,-5.215,-5.2145,-5.2144,-5.2142,-5.214,-5.2268,-5.2272,-5.2277,0,0,0,0,0,0,0,0,0,0,0,0,0,-5.1772,-5.1777,-5.202,-5.2021,-5.2023,-5.2146,-5.2148,-5.215,-5.2146,-5.2144,-5.2141,-5.2139,-5.2266,-5.2272,-5.2278,0,0,0,0,0,0,0,0,0,0,0,0,0,-5.1887,-5.1778,-5.2019,-5.2036,-5.2038,-5.2146,-5.2148,-5.215,-5.2146,-5.2143,-5.2141,-5.2138,-5.2264,-5.2271,-5.2279,-5.2378,0,0,-5.2302,-5.2305,0,0,0,0,0,0,0,0,-5.1881,-5.1896,-5.2032,-5.2035,-5.2038,-5.2128,-5.2108,-5.2226,-5.2147,-5.2105,-5.214,-5.2137,-5.2223,-5.2234,-5.2263,-5.2384,-5.2389,-5.2302,-5.2307,-5.231,-5.2312,0,0,0,0,0,0,0,-5.1873,-5.1891,-5.207,-5.2034,-5.2037,-5.2036,-5.205,-5.213,-5.2177,-5.2109,-5.2109,-5.2124,-5.2224,-5.2256,-5.2266,-5.2391,-5.2302,-5.2309,-5.2313,-5.2316,-5.2601,-5.2604,0,0,0,0,0,0,-5.1862,-5.1884,-5.2066,-5.2074,-5.1951,-5.2043,-5.2058,-5.2101,-5.2176,-5.2185,-5.2126,-5.2123,-5.2244,-5.2257,-5.2271,-5.2393,-5.231,-5.2317,-5.2321,-5.2598,-5.2602,-5.2605,0,0,0,0,0,0,-5.1856,-5.1878,-5.2061,-5.1979,-5.2002,-5.205,-5.2099,-5.2105,-5.2137,-5.2189,-5.2197,-5.215,-5.2243,-5.226,-5.2352,-5.2397,-5.2321,-5.2327,-5.2594,-5.2599,-5.2603,-5.2637,0,0,0,0,0,0,-5.1849,-5.1876,-5.1914,-5.198,-5.2007,-5.214,-5.2102,-5.211,-5.215,-5.2148,-5.2214,-5.2222,-5.2242,-5.2341,-5.2359,-5.2406,-5.2333,-5.259,-5.2596,-5.2602,-5.2632,-5.2642,-5.2651,0,0,0,0,0,-5.184,-5.1918,-5.1916,-5.1938,-5.2056,-5.2143,-5.2158,-5.218,-5.2154,-5.2193,-5.2227,-5.222,-5.2389,-5.235,-5.2371,-5.2421,-5.2588,-5.2595,-5.2601,-5.2628,-5.264,-5.2651,0,0,0,0,0,0,-5.1855,-5.1926,-5.1926,-5.2027,-5.2079,-5.2142,-5.2191,-5.2192,-5.2251,-5.2247,-5.227,-5.2285,-5.2377,-5.2408,-5.2363,-5.2521,-5.2485,-5.2496,-5.2498,-5.251,-5.2519,-5.251,-5.234,0,0,0,0,0,-5.187,-5.1935,-5.1994,-5.2077,-5.2104,-5.2143,-5.2182,-5.2195,-5.2249,-5.2271,-5.2311,-5.2364,-5.2429,-5.2471,-5.2534,-5.2637,-5.2651,-5.2681,-5.2691,-5.2698,-5.2708,-5.2766,-5.278,-5.2627,-5.2627,-5.2627,0,0,-5.1901,-5.1948,-5.1988,-5.2082,-5.2123,-5.2191,-5.2162,-5.2233,-5.2284,-5.2281,-5.2371,-5.2403,-5.2463,-5.2561,-5.2607,-5.259,-5.2753,-5.2707,-5.2712,-5.2718,-5.2775,-5.2789,-5.2802,-5.2632,-5.2631,-5.263,0,0,-5.1993,-5.2035,-5.211,-5.2153,-5.2218,-5.2244,-5.2262,-5.2325,-5.2347,-5.2438,-5.2438,-5.2498,-5.2609,-5.2652,-5.2689,-5.28,-5.2796,-5.2819,-5.2868,-5.2925,-5.2937,-5.2948,-5.2988,-5.3002,-5.2828,-5.2829,-5.2829,0,-5.2023,-5.2125,-5.2148,-5.2221,-5.2263,-5.2266,-5.2342,-5.2382,-5.2463,-5.2492,-5.2472,-5.2613,-5.2654,-5.2763,-5.279,-5.282,-5.2841,-5.2812,-5.2933,-5.2944,-5.2955,-5.2994,-5.3009,-5.2831,-5.2831,-5.283,-5.283,0,-5.216,-5.2231,-5.2284,-5.2364,-5.2411,-5.2485,-5.252,-5.2565,-5.2574,-5.2602,-5.2695,-5.2744,-5.2818,-5.2844,-5.2853,-5.2956,-5.2943,-5.2928,-5.2892,-5.2972,-5.3009,-5.3024,-5.2835,-5.2834,-5.2833,-5.2832,0,0,-5.2263,-5.2357,-5.2376,-5.2413,-5.2486,-5.254,-5.2615,-5.2688,-5.2727,-5.2783,-5.2847,-5.2942,-5.2929,-5.2971,-5.2984,-5.3034,-5.312,-5.3013,-5.3015,-5.3032,-5.3238,-5.3249,-5.3266,-5.3118,-5.3121,-5.3124,-5.3233,0,-5.2364,-5.2497,-5.2521,-5.2638,-5.2704,-5.2708,-5.2774,-5.2825,-5.2854,-5.2914,-5.2945,-5.3013,-5.299,-5.3015,-5.3065,-5.3099,-5.3162,-5.3092,-5.3178,-5.3181,-5.3164,-5.3286,-5.3298,-5.3399,-5.3248,-5.325,-5.3252,0,-5.2498,-5.256,-5.2683,-5.2749,-5.2777,-5.2836,-5.2906,-5.2963,-5.3022,-5.3039,-5.3087,-5.3095,-5.3173,-5.3134,-5.3242,-5.3193,-5.323,-5.3253,-5.3257,-5.3266,-5.3222,-5.3299,-5.3431,-5.3447,-5.3275,-5.3273,-5.3271,0,-5.2562,-5.2676,-5.2765,-5.2797,-5.2875,-5.2916,-5.295,-5.3006,-5.305,-5.311,-5.3139,-5.3207,-5.3245,-5.3298,-5.3325,-5.3294,-5.3432,-5.3394,-5.3449,-5.3448,-5.3478,-5.3476,-5.3619,-5.35,-5.35,-5.35,-5.3499,0,-5.2672,-5.2748,-5.2796,-5.2851,-5.2936,-5.2963,-5.3046,-5.308,-5.313,-5.3192,-5.3199,-5.3256,-5.3288,-5.335,-5.3371,-5.3459,-5.3475,-5.3492,-5.3496,-5.3492,-5.349,-5.3516,-5.351,-5.3504,-5.3503,-5.3502,-5.3501,0,-5.2758,-5.2793,-5.2891,-5.2958,-5.2976,-5.3037,-5.3093,-5.3147,-5.3176,-5.3254,-5.3274,-5.3319,-5.3393,-5.3425,-5.3515,-5.353,-5.363,-5.3629,-5.361,-5.3612,-5.3666,-5.3661,-5.3831,-5.3856,-5.372,-5.3721,-5.3722,0,-5.2826,-5.2885,-5.2959,-5.3001,-5.3037,-5.3105,-5.315,-5.3178,-5.3224,-5.3297,-5.3342,-5.3416,-5.3477,-5.3595,-5.3636,-5.3705,-5.3707,-5.3762,-5.3717,-5.3711,-5.3709,-5.3706,-5.3712,-5.377,-5.3772,-5.3773,-5.3774,0,-5.2943,-5.2959,-5.3023,-5.3095,-5.3149,-5.3206,-5.3262,-5.3296,-5.3333,-5.3385,-5.3461,-5.3509,-5.3603,-5.3676,-5.3749,-5.3784,-5.3786,-5.3788,-5.3804,-5.38,-5.3787,-5.3796,-5.3634,-5.3783,-5.3782,-5.3782,-5.3781,-5.3781,-5.3023,-5.3077,-5.3138,-5.321,-5.3256,-5.3308,-5.3363,-5.3399,-5.3464,-5.3543,-5.3556,-5.3638,-5.3696,-5.3794,-5.3832,-5.3896,-5.3883,-5.3906,-5.3912,-5.3918,-5.3922,-5.3777,-5.3909,-5.3909,-5.3909,-5.3909,-5.3909,0,-5.3142,-5.3182,-5.3248,-5.3328,-5.3385,-5.3383,-5.3445,-5.3493,-5.3565,-5.362,-5.3681,-5.377,-5.3842,-5.3889,-5.3962,-5.4005,-5.4008,-5.4023,-5.4021,-5.4029,-5.3929,-5.3908,-5.402,-5.402,-5.402,-5.402,-5.402,-5.402,-5.3211,-5.3301,-5.3324,-5.3438,-5.3477,-5.3558,-5.3594,-5.3643,-5.3687,-5.3786,-5.3847,-5.3878,-5.393,-5.4008,-5.4074,-5.4086,-5.4113,-5.413,-5.4141,-5.4047,-5.4036,-5.4025,-5.4005,-5.4135,-5.4135,-5.4235,-5.4236,-5.4237]}]]